Other Surface Observations
Issued by NWS Upton, NY

Home | Current Version | Previous Version | Text Only | Print | Product List | Glossary On
Versions: 1 2 3 4 5 6 7 8 9 10 11 12 13 14 15 16 17 18 19 20 21 22 23 24 25 26 27 28 29 30 31 32 33 34 35 36 37 38 39 40 41 42 43 44 45 46 47 48 49 50
000
SXUS51 KOKX 240057
OSOOKX
NEW YORK CITY METROPOLITAN AREA WEATHER ROUNDUP
National Weather Service New York NY
800 PM EST THU NOV 23 2017

CITY           SKY/WX    TMP DP  RH WIND       PRES   REMARKS
Central Park   CLEAR     40  20  44 W8        30.03F WCI  34
LaGuardia APRT PTCLDY    42  20  41 W8        30.01F
Kennedy INTL   PTCLDY    39  23  52 W14       30.03F WCI  31
Newark Liberty PTCLDY    38  20  48 W9        30.02F WCI  31
Teterboro APRT CLEAR     36  21  54 W5        30.01F WCI  32
Bronx Bot Gard   N/A     39  19  45 NW2       30.01F
Bronx Lehman C   N/A     39  32  75 W3          N/A
Queens College   N/A     39  32  75 W6          N/A  WCI  35
Breezy Point     N/A     39 N/A N/A W9G15       N/A  WCI  33
Brooklyn Coll    N/A     39  32  75 W7          N/A  WCI  34
Staten Island    N/A     37  32  81 SW5         N/A  WCI  34

>>>>>>>>>>>>>>>>>>>>>>>>>>>>>>>>> KEY <<<<<<<<<<<<<<<<<<<<<<<<<<<<<<<
> SKY/WX - SKY CONDITION/PRESENT    : R : WCI - WIND CHILL INDEX    <
>          WEATHER                  : E : VSB - VISIBILITY IN MILES <
> TMP    - TEMPERATURE IN DEG F     : M : HX  - HEAT INDEX          <
> DP     - DEW POINT TEMPERATURE    : A : TC  - TEMPERATURE IN      <
> RH     - RELATIVE HUMIDITY        : R :       CELSIUS             <
> WIND   - DIRECTION/SPEED (MPH)    : K : VRB - VARIABLE WIND  DIR  <
> PRES   - PRESSURE (IN HG)         : S :                           <
>>>>>>>>>>>>>>>>>>>>>>>>>>>>>>>>> KEY <<<<<<<<<<<<<<<<<<<<<<<<<<<<<<<




USA.gov is the U.S. government's official web portal to all federal, state and local government web resources and services.